Regional Weather Roundup
Issued by NWS

Home | Current Version | Previous Version | Graphics & Text | Print | Product List | Glossary On
Versions: 1 2 3 4 5 6 7 8 9 10 11 12 13 14 15 16 17 18 19 20 21 22 23 24 25 26 27 28 29 30 31 32 33 34 35 36 37 38 39 40 41 42 43 44 45 46 47 48 49 50
838
ASUS45 KCYS 210010
RWRWY

WYOMING REGIONAL WEATHER ROUNDUP
NATIONAL WEATHER SERVICE CHEYENNE WY
500 PM MST FRI JAN 20 2017

NOTE:  "FAIR" INDICATES FEW OR NO CLOUDS BELOW 12,000 FEET
WITH NO SIGNIFICANT WEATHER AND/OR OBSTRUCTIONS TO VISIBILITY.

WYZ001-210100-
YELLOWSTONE NATIONAL PARK

CITY           SKY/WX    TMP DP  RH WIND       PRES   REMARKS
LK YELLOWSTONE   N/A     20  15  81 CALM      29.41R
6HR MIN TEMP:  20; 6HR MAX TEMP:  27;

W YELLOWSTONE  NOT AVBL

$$
WYZ002>013-054>058-071-098>099-210100-
NORTHERN WYOMING

CITY           SKY/WX    TMP DP  RH WIND       PRES   REMARKS
JACKSON        MOCLDY    23  21  93 CALM      29.41F
CODY           FAIR      24  21  88 NE7       29.39S WCI  16
GREYBULL       FAIR      25  20  81 N3        29.41S
6HR MIN TEMP:  25; 6HR MAX TEMP:  36;

WORLAND        FAIR      32  27  81 SE12      29.39S WCI  23
6HR MIN TEMP:  31; 6HR MAX TEMP:  37; 6HR PCP: TRACE;

SHERIDAN       FAIR      34  29  82 SW9       29.40R WCI  27
6HR MIN TEMP:  34; 6HR MAX TEMP:  39;

BUFFALO        CLOUDY    34  29  82 CALM      29.40S
6HR MIN TEMP:  33; 6HR MAX TEMP:  35; 6HR PCP: TRACE;

GILLETTE       CLOUDY    33  32  96 NW8       29.39S WCI  26
6HR MIN TEMP:  32; 6HR MAX TEMP:  34; 6HR PCP:  0.01;

HULETT         FLURRIES  34  32  93 MISG      29.39R
NEWCASTLE      CLOUDY    32  32 100 NW12      29.39R WCI  23

$$
WYZ014>020-022>026-101>103-210100-
CENTRAL WYOMING

CITY           SKY/WX    TMP DP  RH WIND       PRES   REMARKS
BIG PINEY      MOCLDY     4   1  88 CALM      29.46S
6HR MIN TEMP:  -1; 6HR MAX TEMP:  11;

PINEDALE       FAIR      10   5  79 SE3       29.46S
DUBOIS         NOT AVBL
LANDER         FAIR      27  18  69 N3        29.38S
6HR MIN TEMP:  27; 6HR MAX TEMP:  35;

RIVERTON       FAIR      22  17  81 NE3       29.40S
                                      6HR PCP: TRACE;

CASPER         FAIR      32  25  75 SW10      29.41S WCI  24
6HR MIN TEMP:  31; 6HR MAX TEMP:  37;

DOUGLAS        FAIR      34  30  85 NW8       29.42R WCI  27
6HR MIN TEMP:  32; 6HR MAX TEMP:  36; 6HR PCP: TRACE;


$$
WYZ021-027>030-104>119-210100-
SOUTHERN WYOMING

CITY           SKY/WX    TMP DP  RH WIND       PRES   REMARKS
EVANSTON       FAIR      22  15  75 E9        29.38F WCI  12
6HR MIN TEMP:  22; 6HR MAX TEMP:  28;

ROCK SPRINGS   CLOUDY    22  19  89 NE3       29.44F FOG
6HR MIN TEMP:  20; 6HR MAX TEMP:  26;

RAWLINS        FAIR      25  16  68 W6        29.46F WCI  18
6HR MIN TEMP:  24; 6HR MAX TEMP:  28;

LARAMIE        FAIR      24  15  68 W9        29.41R WCI  14
6HR MIN TEMP:  24; 6HR MAX TEMP:  30;

CHEYENNE       CLOUDY    33  18  53 NW15G21   29.40R WCI  23
6HR MIN TEMP:  33; 6HR MAX TEMP:  39;

TORRINGTON     CLOUDY    36  33  89 W10       29.39S WCI  28
6HR MIN TEMP:  36; 6HR MAX TEMP:  41; 6HR PCP: TRACE;


$$




USA.gov is the U.S. government's official web portal to all federal, state and local government web resources and services.